RADUGA 13 [-]

Last updated on July 6, 2021, 3:35 p.m. UTC

1 14307U 83088A   21186.81278751 -.00000099  00000-0  00000-0 0  9998
2 14307  12.9524 326.9664 0017272  36.7740 324.9651  0.98173852101209
UTC
Height (km)
Latitude
Longitude
Inclination
Orbital Period
UTC large
Height (km)
Speed (km/s)
/
Latitude / Longitude
Inclination (degrees)
Orbital Period (minutes)
Azimuth
Elevation
Range (km)
Doppler Factor
iOS Compass Heading
iOS Angle